Satellite-Ground Cal/Val Site Overpasses Predictions

Prediction of Satellite NPP Overpassing Cal/Val Site: Antarctic Dome C

Ground Cal/Val Site Location: Latitude: -75.10, Longitude: 123.35; Satellite-Ground Site NADIR distance within 100 km.

Table of predicted overpasses for the next 14.0 days since TLE Epoch: 7/15/2024
Interval Starting Time Ending Time Minimum Distance Time Minimum Distance (km)
1 07/16/2024 15:01:26 07/16/2024 15:01:50 07/16/2024 15:01:38 59.60
2 07/17/2024 14:42:36 07/17/2024 14:43:02 07/17/2024 14:42:49 49.50
3 07/18/2024 07:44:19 07/18/2024 07:44:39 07/18/2024 07:44:29 73.84
4 07/19/2024 07:25:26 07/19/2024 07:25:54 07/19/2024 07:25:40 33.82
5 07/21/2024 15:07:57 07/21/2024 15:08:02 07/21/2024 15:08:00 98.07
6 07/22/2024 14:48:57 07/22/2024 14:49:26 07/22/2024 14:49:11 13.23
7 07/24/2024 07:31:48 07/24/2024 07:32:17 07/24/2024 07:32:02 4.13
8 07/27/2024 14:55:18 07/27/2024 14:55:46 07/27/2024 14:55:32 23.87
